15 daagse weersverwachting Turin (IT)

  • Overzicht
  • Per uur
  • 15 dagen
  • Extra
  • Vergelijk
  • Kaarten
  • Dagkaart
  • Meer »
  • Info
  • Statistieken
  • Directe link
    Temp 6h Neerslag Wind  
 07:36     16:55    Daglengte: 9:19 Morgen
01:00
2.5 mm
1
07:00
5.2 mm
1
13:00
5.0 mm
2
19:00
5.2 mm
2
 07:38     16:54    Daglengte: 9:16 Vrijdag 22 Nov
01:00
23.5 mm
2
07:00
24.8 mm
2
13:00
22.0 mm
2
19:00
15.7 mm
2
 07:39     16:53    Daglengte: 9:14 Zaterdag 23 Nov
01:00
34.0 mm
2
07:00
43.4 mm
4
13:00
59.7 mm
4
19:00
10°
69.4 mm
3
Locatie info
Region: Piedmont
Latitude: 45.0705°N
Longitude: 7.6868°E
245 masl
Temp/Neerslag /Baro Onweer/Dauwpunt
    Temp Baro 1h Neerslag Dauwpunt Wind UV Bewolking  
 07:36     16:55    Daglengte: 9:19 Morgen
00:00
1011.9 hPa 1.2 mm
49%
5.7°
0
Windvlaag: 0.8 km/h
89%
01:00
1011.7 hPa 1.3 mm
82%
5.5°
1
Windvlaag: 0.9 km/h
86%
02:00
Voelt als: 7.2°
1011.5 hPa 1.2 mm
82%
5.5°
0
Windvlaag: -0.3 km/h
90%
03:00
1011.3 hPa 0.7 mm
80%
5.7°
1
Windvlaag: -0.3 km/h
90%
04:00
Voelt als: 6.7°
1011.1 hPa 0.9 mm
82%
5.5°
1
Windvlaag: -0 km/h
89%
05:00
1011.0 hPa
82%
5.8°
1
Windvlaag: 0.1 km/h
88%
06:00
Voelt als: 7.0°
1011.0 hPa 1.3 mm
78%
5.8°
1
Windvlaag: 0.1 km/h
89%
07:00
Voelt als: 6.8°
1011.2 hPa 1.0 mm
75%
5.7°
1
Windvlaag: 0.1 km/h
86%
08:00
Voelt als: 6.4°
1011.6 hPa 0.9 mm
78%
5.6°
1
Windvlaag: -0 km/h
88%
09:00
Voelt als: 6.5°
1012.1 hPa 1.1 mm
81%
5.9°
1
Windvlaag: -0.5 km/h
87%
10:00
Voelt als: 6.9°
1012.2 hPa 1.0 mm
80%
6.3°
2
Windvlaag: -1 km/h
90%
11:00
Voelt als: 7.6°
1012.2 hPa 0.7 mm
82%
6.5°
1
Windvlaag: -1.1 km/h
87%
12:00
Voelt als: 8.1°
1012.0 hPa 0.7 mm
82%
6.7°
2
Windvlaag: -1.2 km/h
85%
13:00
Voelt als: 8.5°
1011.5 hPa 0.7 mm
82%
6.6°
2
Windvlaag: -0.9 km/h
66%
14:00
10°
Voelt als: 9.1°
1011.1 hPa
75%
6.2°
2
Windvlaag: -0.9 km/h
73%
15:00
10°
Voelt als: 9.1°
1011.1 hPa
44%
6.0°
2
Windvlaag: -0.9 km/h
81%
16:00
Voelt als: 9.0°
1011.2 hPa 0.9 mm
40%
6.6°
1
Windvlaag: -0.6 km/h
88%
17:00
Voelt als: 7.9°
1011.5 hPa 1.2 mm
80%
6.5°
1
Windvlaag: -0.5 km/h
89%
18:00
Voelt als: 7.6°
1011.8 hPa 1.3 mm
82%
6.6°
2
Windvlaag: -0.3 km/h
87%
19:00
Voelt als: 7.2°
1012.0 hPa 1.7 mm
82%
6.8°
2
Windvlaag: -0.3 km/h
91%
20:00
Voelt als: 7.5°
1012.1 hPa 2.8 mm
82%
6.8°
2
Windvlaag: -0.4 km/h
90%
21:00
Voelt als: 7.4°
1012.2 hPa 3.7 mm
82%
6.5°
2
Windvlaag: -0.5 km/h
91%
22:00
Voelt als: 7.1°
1012.4 hPa 4.2 mm
82%
6.0°
2
Windvlaag: -0.5 km/h
90%
23:00
Voelt als: 6.6°
1012.2 hPa 4.5 mm
82%
5.7°
2
Windvlaag: -0.6 km/h
90%
 07:38     16:54    Daglengte: 9:16 Vrijdag 22 Nov
00:00
Voelt als: 6.5°
1012.1 hPa 4.3 mm
82%
5.4°
2
Windvlaag: -1 km/h
88%
01:00
Voelt als: 6.6°
1011.8 hPa 4.0 mm
82%
5.5°
2
Windvlaag: -1.6 km/h
89%
02:00
Voelt als: 6.7°
1011.8 hPa 4.0 mm
82%
5.8°
2
Windvlaag: -1.7 km/h
88%
03:00
Voelt als: 6.5°
1011.7 hPa 4.0 mm
82%
6.1°
2
Windvlaag: -1.5 km/h
88%
04:00
Voelt als: 6.2°
1011.4 hPa 3.9 mm
82%
5.8°
2
Windvlaag: -1.6 km/h
86%
05:00
Voelt als: 6.4°
1011.5 hPa 3.6 mm
82%
5.8°
2
Windvlaag: -1.8 km/h
90%
06:00
Voelt als: 6.5°
1011.8 hPa 4.7 mm
82%
5.8°
2
Windvlaag: -1.4 km/h
90%
07:00
Voelt als: 6.6°
1011.9 hPa 4.6 mm
74%
5.8°
2
Windvlaag: -0.7 km/h
89%
08:00
Voelt als: 7.1°
1012.1 hPa 4.3 mm
36%
5.9°
1
Windvlaag: -0.3 km/h
87%
09:00
Voelt als: 7.6°
1012.4 hPa 4.2 mm
39%
6.2°
1
Windvlaag: -0.4 km/h
88%
10:00
Voelt als: 7.6°
1012.7 hPa 4.4 mm
39%
6.4°
1
Windvlaag: -0.8 km/h
86%
11:00
Voelt als: 7.8°
1012.9 hPa
36%
6.7°
1
Windvlaag: -1 km/h
87%
12:00
Voelt als: 7.8°
1012.4 hPa 4.4 mm
35%
6.7°
1
Windvlaag: -1.3 km/h
88%
13:00
Voelt als: 8.0°
1012.0 hPa 4.8 mm
34%
6.8°
2
Windvlaag: -1.3 km/h
86%
14:00
Voelt als: 7.8°
1011.7 hPa
32%
7.0°
2
Windvlaag: -1.3 km/h
85%
15:00
Voelt als: 7.7°
1011.4 hPa
37%
6.7°
2
Windvlaag: -1.5 km/h
90%
16:00
Voelt als: 7.6°
1011.4 hPa 4.2 mm
75%
6.9°
2
Windvlaag: -1.4 km/h
91%
17:00
Voelt als: 7.5°
1011.3 hPa 3.5 mm
82%
6.8°
2
Windvlaag: -1.3 km/h
90%
18:00
Voelt als: 7.4°
1011.3 hPa 4.1 mm
82%
6.9°
2
Windvlaag: -0.8 km/h
90%
19:00
Voelt als: 6.9°
1011.3 hPa 4.0 mm
82%
6.9°
2
Windvlaag: -0.9 km/h
90%
20:00
Voelt als: 6.8°
1011.3 hPa 4.4 mm
82%
7.1°
2
Windvlaag: -1.3 km/h
91%
21:00
Voelt als: 6.7°
1011.2 hPa 4.6 mm
82%
6.9°
2
Windvlaag: -0.9 km/h
91%
22:00
Voelt als: 6.5°
1011.5 hPa 5.2 mm
100%
6.3°
2
Windvlaag: -0.2 km/h
100%
23:00
Voelt als: 6.4°
1011.1 hPa 5.9 mm
100%
6.1°
2
Windvlaag: -0.4 km/h
100%
 07:39     16:53    Daglengte: 9:14 Zaterdag 23 Nov
00:00
Voelt als: 6.3°
1010.5 hPa 6.8 mm
100%
6.1°
2
Windvlaag: -0.5 km/h
100%
01:00
Voelt als: 6.2°
1010.1 hPa 7.1 mm
100%
6.2°
2
Windvlaag: -1 km/h
100%
02:00
Voelt als: 5.9°
1009.7 hPa 7.1 mm
100%
6.4°
3
Windvlaag: -1.1 km/h
99%
03:00
Voelt als: 6.7°
1009.0 hPa 7.1 mm
100%
6.4°
2
Windvlaag: -1.1 km/h
100%
04:00
Voelt als: 6.6°
1008.2 hPa 7.3 mm
100%
6.5°
2
Windvlaag: -0.6 km/h
100%
05:00
Voelt als: 6.5°
1007.9 hPa 6.8 mm
100%
6.5°
3
Windvlaag: -0.4 km/h
100%
06:00
Voelt als: 6.3°
1007.9 hPa 8.7 mm
100%
6.7°
3
Windvlaag: -0.9 km/h
100%
07:00
Voelt als: 6.2°
1007.8 hPa 6.5 mm
100%
7.1°
4
Windvlaag: -0.9 km/h
99%
08:00
Voelt als: 6.5°
1007.6 hPa 9.1 mm
100%
7.3°
4
Windvlaag: 1.6 km/h
100%
09:00
Voelt als: 6.8°
1007.8 hPa 9.5 mm
100%
7.3°
3
Windvlaag: 1.7 km/h
100%
10:00
Voelt als: 7.1°
1007.8 hPa 9.9 mm
100%
7.5°
3
Windvlaag: 1.7 km/h
100%
11:00
Voelt als: 7.1°
1007.6 hPa 10.1 mm
100%
7.5°
3
Windvlaag: 1.7 km/h
100%
12:00
Voelt als: 7.3°
1007.0 hPa 10.2 mm
100%
7.6°
3
Windvlaag: 1.3 km/h
100%
13:00
Voelt als: 7.4°
1006.3 hPa 10.9 mm
100%
7.7°
4
Windvlaag: 1.5 km/h
100%
14:00
10°
Voelt als: 7.9°
1006.1 hPa 10.6 mm
100%
7.8°
4
Windvlaag: 2.2 km/h
96%
15:00
10°
Voelt als: 7.9°
1006.2 hPa 11.5 mm
100%
7.7°
3
Windvlaag: 1.7 km/h
100%
16:00
10°
Voelt als: 8.0°
1006.3 hPa 11.0 mm
100%
8.1°
3
Windvlaag: 1.6 km/h
100%
17:00
10°
Voelt als: 7.9°
1006.4 hPa 10.9 mm
100%
8.3°
4
Windvlaag: 1.8 km/h
100%
18:00
10°
Voelt als: 8.0°
1006.7 hPa 12.2 mm
100%
8.2°
3
Windvlaag: 1.7 km/h
100%
19:00
10°
Voelt als: 8.3°
1007.3 hPa 13.2 mm
100%
8.5°
3
Windvlaag: 2 km/h
100%
20:00
10°
Voelt als: 8.1°
1007.9 hPa 18.1 mm
100%
8.4°
3
Windvlaag: 13.8 km/h
100%
21:00
10°
Voelt als: 8.2°
1008.5 hPa 18.3 mm
100%
8.5°
3
Windvlaag: 11.9 km/h
100%
22:00
10°
Voelt als: 8.1°
1009.1 hPa 19.3 mm
100%
8.5°
3
Windvlaag: 11.5 km/h
100%
23:00
10°
Voelt als: 8.1°
1009.7 hPa 19.0 mm
100%
8.4°
3
Windvlaag: 10.4 km/h
100%
Temp/Neerslag /Baro Onweer/Dauwpunt
    Temp Baro Neerslag Dauwpunt Wind Bewolking  
 07:36     16:55    Daglengte: 9:19 Morgen
01:00
1011.7 hPa 2.5 mm 5.5°
1
86%
04:00
Voelt als: 6.7°
1011.1 hPa 2.9 mm 5.5°
1
89%
07:00
Voelt als: 6.8°
1011.2 hPa 2.3 mm 5.7°
1
86%
10:00
Voelt als: 6.9°
1012.2 hPa 3.0 mm 6.3°
2
90%
13:00
Voelt als: 8.5°
1011.5 hPa 2.0 mm 6.6°
2
66%
16:00
Voelt als: 9.0°
1011.2 hPa 0.9 mm 6.6°
1
88%
19:00
Voelt als: 7.2°
1012.0 hPa 4.2 mm 6.8°
2
91%
22:00
Voelt als: 7.1°
1012.4 hPa 10.8 mm 6.0°
2
90%
 07:38     16:54    Daglengte: 9:16 Vrijdag 22 Nov
01:00
Voelt als: 6.6°
1011.8 hPa 12.8 mm 5.5°
2
89%
04:00
Voelt als: 6.2°
1011.4 hPa 11.9 mm 5.8°
2
86%
07:00
Voelt als: 6.6°
1011.9 hPa 12.9 mm 5.8°
2
89%
10:00
Voelt als: 7.6°
1012.7 hPa 12.9 mm 6.4°
1
86%
13:00
Voelt als: 8.0°
1012.0 hPa 9.1 mm 6.8°
2
86%
16:00
Voelt als: 7.6°
1011.4 hPa 4.2 mm 6.9°
2
91%
19:00
Voelt als: 6.9°
1011.3 hPa 11.5 mm 6.9°
2
90%
22:00
Voelt als: 6.5°
1011.5 hPa 14.2 mm 6.3°
2
100%
 07:39     16:53    Daglengte: 9:14 Zaterdag 23 Nov
01:00
Voelt als: 6.2°
1010.1 hPa 19.9 mm 6.2°
2
100%
04:00
Voelt als: 6.6°
1008.2 hPa 21.5 mm 6.5°
2
100%
07:00
Voelt als: 6.2°
1007.8 hPa 21.9 mm 7.1°
4
99%
10:00
Voelt als: 7.1°
1007.8 hPa 28.5 mm 7.5°
3
100%
13:00
Voelt als: 7.4°
1006.3 hPa 31.2 mm 7.7°
4
100%
16:00
10°
Voelt als: 8.0°
1006.3 hPa 33.1 mm 8.1°
3
100%
19:00
10°
Voelt als: 8.3°
1007.3 hPa 36.3 mm 8.5°
3
100%
22:00
10°
Voelt als: 8.1°
1009.1 hPa 55.8 mm 8.5°
3
100%
 07:40     16:52    Daglengte: 9:12 Zondag 24 Nov
01:00
10°
Voelt als: 8.1°
1010.9 hPa 62.1 mm 8.2°
3
100%
04:00
10°
Voelt als: 8.2°
1013.0 hPa 123.1 mm 8.0°
3
92%
07:00
Voelt als: 8.5°
1013.7 hPa 130.9 mm 8.0°
2
92%
10:00
11°
1014.4 hPa 135.9 mm 8.8°
1
67%
13:00
13°
1014.8 hPa 136.8 mm 9.5°
1
42%
16:00
12°
1014.7 hPa 136.8 mm 8.6°
1
62%
19:00
10°
Voelt als: 9.6°
1014.7 hPa 136.8 mm 7.6°
1
81%
22:00
10°
1014.7 hPa 136.8 mm 6.9°
1
86%
 07:41     16:52    Daglengte: 9:11 Maandag 25 Nov
01:00
Voelt als: 9.4°
1014.6 hPa 136.8 mm 6.1°
1
92%
04:00
1013.7 hPa 136.8 mm 5.9°
1
92%
07:00
Voelt als: 8.7°
1012.8 hPa 136.8 mm 5.7°
0
92%
10:00
11°
1012.1 hPa 136.8 mm 6.6°
1
71%
13:00
13°
1011.2 hPa 136.8 mm 7.4°
1
50%
16:00
11°
1010.4 hPa 136.8 mm 7.4°
1
49%
19:00
Voelt als: 8.9°
1009.7 hPa 136.8 mm 7.1°
1
49%
22:00
Voelt als: 7.7°
1009.3 hPa 136.8 mm 6.2°
1
53%
 07:43     16:51    Daglengte: 9:08 Dinsdag 26 Nov
01:00
Voelt als: 6.5°
1008.8 hPa 136.8 mm 5.2°
1
58%
04:00
Voelt als: 6.7°
1008.7 hPa 136.8 mm 4.9°
1
65%
07:00
1008.7 hPa 136.8 mm 4.7°
1
72%
10:00
1008.7 hPa 136.8 mm 6.2°
1
74%
13:00
11°
1008.5 hPa 136.8 mm 7.8°
1
76%
16:00
10°
1008.7 hPa 136.8 mm 6.3°
1
80%
19:00
Voelt als: 8.0°
1009.0 hPa 136.8 mm 4.7°
1
85%
22:00
1008.9 hPa 136.8 mm 3.1°
1
88%
 07:44     16:50    Daglengte: 9:06 Woensdag 27 Nov
01:00
Voelt als: 6.1°
1008.8 hPa 136.8 mm 1.4°
1
92%
04:00
1006.9 hPa 136.8 mm 2.1°
1
92%
07:00
Voelt als: 6.0°
1005.0 hPa 136.8 mm 2.8°
1
92%
10:00
1003.6 hPa 136.8 mm 4.3°
1
47%
13:00
10°
1002.0 hPa 136.8 mm 6.0°
1
2%
16:00
Voelt als: 7.3°
1002.3 hPa 136.8 mm 5.3°
1
1%
19:00
Voelt als: 4.0°
1002.8 hPa 136.8 mm 4.4°
2
0%
22:00
Voelt als: 3.9°
1004.4 hPa   3.7°
1
26%
 07:45     16:50    Daglengte: 9:05 Donderdag 28 Nov
01:00
Voelt als: 4.0°
1005.9 hPa 273.5 mm 3.1°
1
51%
07:00
Voelt als: 4.2°
1007.9 hPa 273.5 mm 0.4°
1
8%
13:00
13°
1010.2 hPa 273.5 mm 5.0°
1
53%
19:00
Voelt als: 7.2°
1011.9 hPa 273.5 mm 3.2°
1
80%
 07:46     16:49    Daglengte: 9:03 Vrijdag 29 Nov
01:00
Voelt als: 5.2°
1013.2 hPa 273.5 mm 0.5°
1
36%
07:00
Voelt als: 4.3°
1013.7 hPa 273.5 mm 0.5°
1
35%
13:00
11°
1013.5 hPa 273.5 mm 4.7°
1
84%
19:00
Voelt als: 6.2°
1014.4 hPa 273.6 mm 4.2°
1
1%
 07:48     16:49    Daglengte: 9:01 Zaterdag 30 Nov
01:00
Voelt als: 4.3°
1015.5 hPa 273.6 mm 2.6°
1
34%
07:00
1015.6 hPa 273.6 mm 1.9°
0
83%
13:00
10°
1015.2 hPa 273.6 mm 5.7°
1
79%
19:00
Voelt als: 4.8°
1018.4 hPa 0.4 mm 2.3°
1
40%
 07:49     16:49    Daglengte: 9:00 Zondag 01 Dec
01:00
Voelt als: 3.7°
1019.0 hPa 0.4 mm 1.2°
1
43%
07:00
Voelt als: 3.6°
1018.3 hPa 0.5 mm 0.9°
1
47%
13:00
Voelt als: 9.3°
1017.3 hPa 1.1 mm 4.0°
1
39%
19:00
Voelt als: 4.2°
1017.8 hPa 1.0 mm 2.2°
1
41%
 07:50     16:48    Daglengte: 8:58 Maandag 02 Dec
01:00
Voelt als: 2.8°
1018.0 hPa 0.8 mm 0.6°
2
48%
07:00
Voelt als: 1.8°
1017.5 hPa 1.5 mm -0.1°
2
43%
13:00
1016.7 hPa 1.1 mm 3.1°
1
39%
19:00
Voelt als: 3.2°
1017.3 hPa 0.6 mm 1.1°
2
41%
 07:51     16:48    Daglengte: 8:57 Dinsdag 03 Dec
01:00
Voelt als: 2.3°
1017.3 hPa 0.6 mm 0.3°
2
50%
07:00
Voelt als: 2.0°
1016.7 hPa 0.9 mm -0.1°
2
47%
13:00
1015.0 hPa 0.8 mm 2.9°
1
40%
19:00
Voelt als: 3.8°
1014.8 hPa 1.1 mm 1.5°
1
39%
 07:52     16:48    Daglengte: 8:56 Woensdag 04 Dec
01:00
Voelt als: 2.2°
1014.1 hPa 1.7 mm 0.4°
2
49%
07:00
Voelt als: 1.7°
1012.4 hPa 2.2 mm -0.0°
2
49%
13:00
1011.4 hPa 1.4 mm 2.1°
1
46%
19:00
Voelt als: 2.0°
1013.0 hPa 0.7 mm -0.2°
2
42%
 07:53     16:47    Daglengte: 8:54 Donderdag 05 Dec
01:00
Voelt als: 0.1°
1014.0 hPa 0.2 mm -1.9°
2
32%
07:00
Voelt als: -0.4°
1014.2 hPa   -2.9°
2
27%
13:00
Voelt als: 7.8°
1013.4 hPa   0.6°
1
29%
19:00
Voelt als: 2.6°
1013.6 hPa 0.5 mm -0.3°
1
36%
  CAPE Lifted Index Hail Supercell Tornado SRH 3km CL BTM PRES CL TOP PRES Swiss DWD icon SMHI TS
 07:36     16:55    Daglengte: 9:19 Morgen
00:00 0 J/kg 1.6 K 0 % 0 % 0 % 0 m²/s² 0 0 1.87 3
01:00 0 J/kg 1.7 K 0 % 0 % 0 % 0 m²/s² 0 0 2.15 80
02:00 0 J/kg 1.7 K 0 % 0 % 0 % 0 m²/s² 0 0 2.03 80
03:00 0 J/kg 2.1 K 0 % 0 % 0 % 0 m²/s² 0 0 2.76 80
04:00 0 J/kg 1.9 K 0 % 0 % 0 % 0 m²/s² 0 0 4.9 45
05:00 0 J/kg 1.8 K 0 % 0 % 0 % 0 m²/s² 0 0 8.76 3
06:00 0 J/kg 2.1 K 0 % 0 % 0 % 0 m²/s² 0 0 8.82 3
07:00 0 J/kg 2.3 K 0 % 0 % 0 % 0 m²/s² 0 0 6.59 3
08:00 0 J/kg 2.4 K 0 % 0 % 0 % 0 m²/s² 0 0 4.8 3
09:00 0 J/kg 2.8 K 0 % 0 % 0 % 0 m²/s² 0 0 5.05 3
10:00 2 J/kg 2.8 K 0 % 0 % 0 % 0 m²/s² 0 0 4.72 3
11:00 13 J/kg 2.7 K 0 % 0 % 0 % 0 m²/s² 0 0 3.72 45
12:00 32 J/kg 2.5 K 0 % 0 % 0 % 0 m²/s² 0 0 3.25 80
13:00 31 J/kg 2.5 K 0 % 0 % 0 % 0 m²/s² 0 0 3.34 3
14:00 30 J/kg 2.6 K 0 % 0 % 0 % 0 m²/s² 0 0 2.99 3
15:00 26 J/kg 2.6 K 0 % 0 % 0 % 0 m²/s² 0 0 2.93 3
16:00 41 J/kg 2.3 K 0 % 0 % 0 % 0 m²/s² 0 0 2.63 3
17:00 26 J/kg 2.3 K 0 % 0 % 0 % 0 m²/s² 0 0 2.63 3
18:00 8 J/kg 2.3 K 0 % 0 % 0 % 0 m²/s² 0 0 2.63 61
19:00 4 J/kg 1.5 K 0 % 0 % 0 % 0 m²/s² 0 0 1.77 61
20:00 9 J/kg 1.6 K 0 % 0 % 0 % 0 m²/s² 0 0 1.93 61
21:00 15 J/kg 2.0 K 0 % 0 % 0 % 0 m²/s² 0 0 2.33 61
22:00 10 J/kg 2.5 K 0 % 0 % 0 % 0 m²/s² 0 0 2.83 61
23:00 7 J/kg 2.8 K 0 % 0 % 0 % 0 m²/s² 0 0 3.25 61
 07:38     16:54    Daglengte: 9:16 Vrijdag 22 Nov
00:00 0 J/kg 3.2 K 0 % 0 % 0 % 0 m²/s² 0 0 4.58 61
01:00 0 J/kg 3.7 K 0 % 0 % 0 % 0 m²/s² 0 0 5.29 61
02:00 1 J/kg 3.7 K 0 % 0 % 0 % 0 m²/s² 0 0 4.78 61
03:00 1 J/kg 3.7 K 0 % 0 % 0 % 0 m²/s² 0 0 5.08 61
04:00 1 J/kg 4.2 K 0 % 0 % 0 % 0 m²/s² 0 0 6.33 61
05:00 2 J/kg 4.8 K 0 % 0 % 0 % 0 m²/s² 0 0 5.82 61
06:00 0 J/kg 4.7 K 0 % 0 % 0 % 0 m²/s² 0 0 5.06 61
07:00 0 J/kg 4.5 K 0 % 0 % 0 % 0 m²/s² 0 0 5.58 3
08:00 0 J/kg 4.4 K 0 % 0 % 0 % 0 m²/s² 0 0 6.95 3
09:00 0 J/kg 4.5 K 0 % 0 % 0 % 0 m²/s² 0 0 7.11 3
10:00 0 J/kg 4.6 K 0 % 0 % 0 % 0 m²/s² 0 0 7.21 3
11:00 10 J/kg 4.7 K 0 % 0 % 0 % 0 m²/s² 0 0 7.55 3
12:00 19 J/kg 5.1 K 0 % 0 % 0 % 0 m²/s² 0 0 8.37 3
13:00 25 J/kg 5.3 K 0 % 0 % 0 % 0 m²/s² 0 0 9.02 3
14:00 34 J/kg 5.7 K 0 % 0 % 0 % 0 m²/s² 0 0 9.24 3
15:00 51 J/kg 5.4 K 0 % 0 % 0 % 0 m²/s² 0 0 7.95 3
16:00 52 J/kg 4.7 K 0 % 0 % 0 % 0 m²/s² 0 0 7.04 3
17:00 49 J/kg 5.1 K 0 % 0 % 0 % 0 m²/s² 0 0 6.54 61
18:00 59 J/kg 5.5 K 0 % 0 % 0 % 0 m²/s² 0 0 6.94 61
19:00 15 J/kg 5.6 K 0 % 0 % 0 % 0 m²/s² 0 0 6.14 61
20:00 43 J/kg 5.9 K 0 % 0 % 0 % 0 m²/s² 0 0 6.2 61
21:00 3 J/kg 5.7 K 0 % 0 % 0 % 0 m²/s² 0 0 5.94 61
22:00 0 J/kg 5.1 K 0 % 0 % 0 % 0 m²/s² 0 0 5.31 61
23:00 0 J/kg 5.0 K 0 % 0 % 0 % 0 m²/s² 0 0 5.21 61
 07:39     16:53    Daglengte: 9:14 Zaterdag 23 Nov
00:00 0 J/kg 2.7 K 0 % 0 % 0 % 0 m²/s² 0 0 2.82 61
01:00 0 J/kg 3.3 K 0 % 0 % 0 % 0 m²/s² 0 0 3.45 61
02:00 0 J/kg 2.7 K 0 % 0 % 0 % 0 m²/s² 0 0 2.91 61
03:00 0 J/kg 1.7 K 0 % 0 % 0 % 0 m²/s² 0 0 1.91 61
04:00 3 J/kg 1.8 K 0 % 0 % 0 % 0 m²/s² 0 0 1.98 61
05:00 10 J/kg 2.3 K 0 % 0 % 0 % 0 m²/s² 0 0 2.48 55
06:00 17 J/kg 2.5 K 0 % 0 % 0 % 0 m²/s² 0 0 2.68 3
07:00 33 J/kg 3.1 K 0 % 0 % 0 % 0 m²/s² 0 0 3.28 61
08:00 35 J/kg 3.0 K 0 % 0 % 0 % 0 m²/s² 0 0 3.12 55
09:00 48 J/kg 3.0 K 0 % 0 % 0 % 0 m²/s² 0 0 3.18 61
10:00 53 J/kg 2.7 K 0 % 0 % 0 % 0 m²/s² 0 0 2.82 55
11:00 0 J/kg 1.9 K 0 % 0 % 0 % 0 m²/s² 0 0 2.02 61
12:00 10 J/kg 1.2 K 0 % 0 % 0 % 0 m²/s² 0 0 1.38 53
13:00 71 J/kg 0.8 K 0 % 0 % 0 % 0 m²/s² 0 0 1.82 53
14:00 100 J/kg 0.6 K 0 % 0 % 0 % 0 m²/s² 0 0 1.05 61
15:00 19 J/kg 1.4 K 0 % 0 % 0 % 0 m²/s² 0 0 1.49 61
16:00 226 J/kg -0.8 K 0 % 0 % 0 % 0 m²/s² 0 0 -0.62 53
17:00 305 J/kg -1.0 K 0 % 0 % 0 % 0 m²/s² 0 0 -0.91 61
18:00 74 J/kg 0.7 K 0 % 0 % 0 % 0 m²/s² 0 0 0.79 55
19:00 63 J/kg 0.7 K 0 % 0 % 0 % 0 m²/s² 0 0 0.88 61
20:00 11 J/kg -0.2 K 0 % 0 % 0 % 0 m²/s² 0 0 0.01 61
21:00 51 J/kg -0.2 K 0 % 0 % 0 % 0 m²/s² 0 0 0.04 61
22:00 62 J/kg -0.3 K 0 % 0 % 0 % 0 m²/s² 0 0 0.12 80
23:00 99 J/kg 0.0 K 0 % 0 % 0 % 0 m²/s² 0 0 0.3 61
Temp Baro Wind Neerslag
  EWN Forecast EWN WRFDA DWD ICON FMI HIRLAM MET Norway GFS
 07:36     16:55    Daglengte: 9:19 Morgen
01:00 7.3° 1011.7 hPa 0.6 m/s 2.5 mm 9.1° 1009.6 hPa 1.1 m/s 0.9 mm 7.1° 1011.8 hPa 0.9 m/s -1.6 mm 7.1° 1012.5 hPa 0.9 m/s 0.0 mm 6.9° 1011.7 hPa 0.0 m/s 0.3 mm 9.0° 1012.5 hPa 0.4 m/s
04:00 6.7° 1011.1 hPa 0.8 m/s 2.9 mm 8.7° 1008.5 hPa 0.7 m/s 4.7 mm 6.6° 1011.6 hPa 0.8 m/s 0.7 mm 6.3° 1011.4 hPa 0.6 m/s 0.0 mm 6.1° 1011.0 hPa 1.0 m/s 0.3 mm 8.7° 1011.2 hPa 0.8 m/s
07:00 6.8° 1011.2 hPa 1.0 m/s 2.3 mm 8.5° 1008.5 hPa 0.7 m/s 6.9 mm 6.6° 1011.9 hPa 1.2 m/s 0.0 mm 6.1° 1011.5 hPa 1.6 m/s 0.0 mm 6.6° 1011.3 hPa 1.0 m/s 0.4 mm 8.6° 1011.4 hPa 1.3 m/s
10:00 7.8° 1012.2 hPa 1.7 m/s 3.0 mm 9.2° 1009.6 hPa 2.0 m/s 7.7 mm 6.7° 1012.8 hPa 1.9 m/s 0.1 mm 7.9° 1011.9 hPa 1.3 m/s 0.0 mm 7.7° 1012.4 hPa 1.4 m/s 0.7 mm 8.7° 1011.8 hPa 1.7 m/s
13:00 9.1° 1011.5 hPa 1.6 m/s 2.0 mm 11.4° 1008.6 hPa 1.7 m/s 7.7 mm 7.9° 1012.5 hPa 1.5 m/s 0.6 mm 9.9° 1010.7 hPa 1.1 m/s 0.0 mm 9.2° 1011.6 hPa 1.7 m/s 0.0 mm 10.2° 1010.8 hPa 1.6 m/s
16:00 9.3° 1011.2 hPa 1.4 m/s 0.9 mm 10.4° 1007.9 hPa 2.6 m/s 9.0 mm 8.7° 1011.2 hPa 1.2 m/s 0.0 mm 10.4° 1010.5 hPa 1.7 m/s 0.0 mm 9.4° 1011.5 hPa 0.9 m/s 0.0 mm 9.9° 1010.4 hPa 1.6 m/s
19:00 8.1° 1012.0 hPa 1.7 m/s 4.2 mm 9.2° 1007.9 hPa 2.7 m/s 23.2 mm 7.9° 1012.5 hPa 0.9 m/s 0.3 mm 9.8° 1011.3 hPa 1.9 m/s 0.0 mm 7.8° 1012.3 hPa 1.8 m/s 1.2 mm 8.8° 1011.5 hPa 1.6 m/s
22:00 8.0° 1012.4 hPa 1.7 m/s 10.8 mm 8.8° 1008.5 hPa 0.7 m/s 51.4 mm 7.5° 1012.7 hPa 1.0 m/s 5.5 mm 10.2° 1011.4 hPa 3.3 m/s 0.0 mm 7.7° 1012.7 hPa 2.0 m/s 3.3 mm 8.1° 1012.0 hPa 2.2 m/s
 07:38     16:54    Daglengte: 9:16 Vrijdag 22 Nov
01:00 7.8° 1011.8 hPa 2.0 m/s 12.8 mm 8.3° 1008.2 hPa 1.4 m/s 59.6 mm 7.5° 1011.6 hPa 1.5 m/s 4.8 mm 9.7° 1010.9 hPa 3.5 m/s 0.0 mm 7.2° 1012.4 hPa 1.8 m/s 4.5 mm 7.7° 1012.0 hPa 2.0 m/s
04:00 7.4° 1011.4 hPa 1.9 m/s 11.9 mm 8.0° 1007.6 hPa 2.0 m/s 60.0 mm 7.0° 1011.3 hPa 0.9 m/s 3.1 mm 9.9° 1010.2 hPa 3.0 m/s 0.0 mm 7.1° 1011.9 hPa 1.6 m/s 2.9 mm 7.9° 1011.3 hPa 1.5 m/s
07:00 7.4° 1011.9 hPa 1.5 m/s 12.9 mm 8.2° 1008.1 hPa 2.0 m/s 60.4 mm 7.1° 1012.1 hPa 0.6 m/s 0.3 mm 9.5° 1010.4 hPa 3.5 m/s 0.0 mm 7.1° 1012.3 hPa 1.4 m/s 2.5 mm 7.9° 1011.7 hPa 1.3 m/s
10:00 7.8° 1012.7 hPa 1.1 m/s 12.9 mm 9.0° 1009.0 hPa 1.8 m/s 60.9 mm 7.6° 1012.8 hPa 0.8 m/s 0.0 mm 10.5° 1011.1 hPa 2.3 m/s 0.0 mm 7.4° 1013.0 hPa 0.5 m/s 0.5 mm 8.3° 1012.2 hPa 1.0 m/s
13:00 8.6° 1012.0 hPa 1.6 m/s 9.1 mm 10.3° 1008.9 hPa 1.0 m/s 61.2 mm 8.5° 1012.1 hPa 1.7 m/s 0.0 mm 10.6° 1010.2 hPa 3.2 m/s 0.0 mm 8.3° 1012.4 hPa 0.2 m/s 0.3 mm 8.8° 1010.7 hPa 1.7 m/s
16:00 8.4° 1011.4 hPa 1.7 m/s 4.2 mm 10.9° 1007.9 hPa 1.7 m/s 61.4 mm 8.1° 1011.6 hPa 1.5 m/s 0.0 mm 10.8° 1009.2 hPa 2.7 m/s 0.0 mm 8.0° 1011.8 hPa 1.4 m/s 0.0 mm 8.7° 1009.7 hPa 2.2 m/s
19:00 8.1° 1011.3 hPa 2.1 m/s 11.5 mm 9.8° 1007.6 hPa 2.9 m/s 64.6 mm 7.6° 1011.5 hPa 1.6 m/s 2.6 mm 10.6° 1009.3 hPa 2.5 m/s 0.0 mm 7.8° 1011.8 hPa 2.0 m/s 1.2 mm 8.3° 1009.8 hPa 2.1 m/s
22:00 7.6° 1011.5 hPa 1.9 m/s 14.2 mm 8.8° 1006.2 hPa 4.9 m/s 73.1 mm 7.5° 1011.4 hPa 1.2 m/s 5.5 mm 7.6° 1011.9 hPa 1.8 m/s 3.4 mm 8.2° 1009.3 hPa 2.5 m/s
 07:39     16:53    Daglengte: 9:14 Zaterdag 23 Nov
01:00 7.7° 1010.1 hPa 2.4 m/s 19.9 mm 9.8° 1003.2 hPa 4.4 m/s 102.0 mm 7.5° 1010.1 hPa 1.1 m/s 5.9 mm 7.6° 1010.7 hPa 2.3 m/s 7.0 mm 8.3° 1008.0 hPa 3.0 m/s
04:00 8.0° 1008.2 hPa 2.3 m/s 21.5 mm 10.6° 1000.6 hPa 3.6 m/s 116.9 mm 7.9° 1008.8 hPa 2.7 m/s 5.4 mm 7.8° 1008.6 hPa 1.4 m/s 5.5 mm 8.1° 1005.7 hPa 3.2 m/s
07:00 8.4° 1007.8 hPa 3.8 m/s 21.9 mm 11.4° 999.8 hPa 5.6 m/s 120.5 mm 8.1° 1008.4 hPa 2.7 m/s 1.5 mm 8.2° 1008.4 hPa 3.8 m/s 3.2 mm 8.3° 1004.6 hPa 2.8 m/s
10:00 8.9° 1007.8 hPa 3.1 m/s 28.5 mm 11.9° 999.7 hPa 5.6 m/s 124.6 mm 8.3° 1008.6 hPa 2.9 m/s 2.3 mm 8.6° 1008.7 hPa 2.8 m/s 6.6 mm 8.4° 1003.8 hPa 3.8 m/s
13:00 9.4° 1006.3 hPa 3.8 m/s 31.2 mm 12.8° 998.0 hPa 5.8 m/s 134.7 mm 8.9° 1007.3 hPa 3.3 m/s 1.3 mm 9.1° 1007.2 hPa 3.6 m/s 9.3 mm 8.7° 1003.0 hPa 3.5 m/s
16:00 9.8° 1006.3 hPa 3.4 m/s 33.1 mm 13.7° 998.2 hPa 3.4 m/s 140.2 mm 9.0° 1007.5 hPa 2.7 m/s 2.4 mm 9.4° 1007.1 hPa 3.6 m/s 10.3 mm 9.1° 1002.7 hPa 3.1 m/s
19:00 9.8° 1007.3 hPa 3.0 m/s 36.3 mm 13.0° 998.0 hPa 7.3 m/s 148.5 mm 9.2° 1008.9 hPa 2.3 m/s 3.4 mm 9.5° 1008.2 hPa 2.5 m/s 13.2 mm 9.9° 1004.1 hPa 4.2 m/s
22:00 9.8° 1009.1 hPa 3.3 m/s 55.8 mm 12.3° 999.6 hPa 5.9 m/s 163.4 mm 9.6° 1010.0 hPa 3.3 m/s 1.9 mm 9.5° 1010.2 hPa 2.9 m/s 10.2° 1005.7 hPa 5.3 m/s
 07:40     16:52    Daglengte: 9:12 Zondag 24 Nov
01:00 9.7° 1010.9 hPa 3.2 m/s 62.1 mm 12.0° 1000.5 hPa 4.2 m/s 173.8 mm 9.3° 1012.0 hPa 2.1 m/s 6.3 mm 9.5° 1012.2 hPa 3.3 m/s 10.1° 1006.6 hPa 5.1 m/s
04:00 9.5° 1013.0 hPa 2.6 m/s 123.1 mm 9.4° 1013.5 hPa 2.4 m/s 10.3° 1007.4 hPa 4.8 m/s 123.1 mm
07:00 9.5° 1013.7 hPa 2.1 m/s 130.9 mm 9.4° 1014.1 hPa 1.9 m/s 10.4° 1009.7 hPa 3.7 m/s 130.9 mm
10:00 11.4° 1014.4 hPa 1.4 m/s 135.9 mm 11.4° 1014.6 hPa 1.2 m/s 10.3° 1011.9 hPa 3.2 m/s 135.9 mm
13:00 13.4° 1014.8 hPa 0.8 m/s 136.8 mm 13.5° 1015.1 hPa 0.6 m/s 11.8° 1012.0 hPa 2.4 m/s 136.8 mm
16:00 11.6° 1014.7 hPa 1.0 m/s 136.8 mm 11.6° 1014.9 hPa 0.9 m/s 12.0° 1012.6 hPa 1.5 m/s 136.8 mm
19:00 9.7° 1014.7 hPa 1.3 m/s 136.8 mm 9.7° 1014.7 hPa 1.3 m/s 10.2° 1014.3 hPa 1.3 m/s 136.8 mm
22:00 9.6° 1014.7 hPa 1.0 m/s 136.8 mm 9.6° 1014.7 hPa 1.0 m/s 9.3° 1015.1 hPa 1.0 m/s 136.8 mm
 07:41     16:52    Daglengte: 9:11 Maandag 25 Nov
01:00 9.4° 1014.6 hPa 0.7 m/s 136.8 mm 9.5° 1014.6 hPa 0.7 m/s 8.7° 1014.8 hPa 0.7 m/s 136.8 mm
04:00 9.1° 1013.7 hPa 0.5 m/s 136.8 mm 9.2° 1013.7 hPa 0.5 m/s 8.3° 1014.3 hPa 0.9 m/s 136.8 mm
07:00 8.7° 1012.8 hPa 0.3 m/s 136.8 mm 8.8° 1012.7 hPa 0.3 m/s 7.8° 1014.2 hPa 0.6 m/s 136.8 mm
10:00 10.6° 1012.1 hPa 0.5 m/s 136.8 mm 10.7° 1011.9 hPa 0.5 m/s 10.5° 1014.4 hPa 0.6 m/s 136.8 mm
13:00 12.6° 1011.2 hPa 0.7 m/s 136.8 mm 12.5° 1011.0 hPa 0.7 m/s 13.3° 1013.7 hPa 0.6 m/s 136.8 mm
16:00 10.8° 1010.4 hPa 0.9 m/s 136.8 mm 10.7° 1010.1 hPa 0.9 m/s 12.3° 1013.9 hPa 0.3 m/s 136.8 mm
19:00 9.0° 1009.7 hPa 1.2 m/s 136.8 mm 8.9° 1009.2 hPa 1.2 m/s 10.3° 1014.9 hPa 0.7 m/s 136.8 mm
22:00 8.0° 1009.3 hPa 1.2 m/s 136.8 mm 7.8° 1008.7 hPa 1.2 m/s 9.3° 1015.8 hPa 1.1 m/s 136.8 mm
 07:43     16:51    Daglengte: 9:08 Dinsdag 26 Nov
01:00 7.0° 1008.8 hPa 1.2 m/s 136.8 mm 6.8° 1008.2 hPa 1.3 m/s 8.6° 1015.8 hPa 0.6 m/s 136.8 mm
04:00 6.7° 1008.7 hPa 0.9 m/s 136.8 mm 6.6° 1008.2 hPa 0.9 m/s 8.0° 1015.3 hPa 0.5 m/s 136.8 mm
07:00 6.5° 1008.7 hPa 0.6 m/s 136.8 mm 6.4° 1008.1 hPa 0.6 m/s 7.5° 1015.3 hPa 0.6 m/s 136.8 mm
10:00 9.0° 1008.7 hPa 0.9 m/s 136.8 mm 8.9° 1008.0 hPa 0.9 m/s 10.2° 1015.6 hPa 0.3 m/s 136.8 mm
13:00 11.4° 1008.5 hPa 1.2 m/s 136.8 mm 11.3° 1008.0 hPa 1.3 m/s 12.9° 1014.3 hPa 0.5 m/s 136.8 mm
16:00 9.8° 1008.7 hPa 1.1 m/s 136.8 mm 9.6° 1008.2 hPa 1.1 m/s 11.5° 1014.1 hPa 0.2 m/s 136.8 mm
19:00 8.0° 1009.0 hPa 0.9 m/s 136.8 mm 7.9° 1008.4 hPa 1.0 m/s 9.3° 1015.5 hPa 0.3 m/s 136.8 mm
22:00 7.1° 1008.9 hPa 1.0 m/s 136.8 mm 7.0° 1008.2 hPa 1.0 m/s 8.5° 1016.5 hPa 0.5 m/s 136.8 mm
 07:44     16:50    Daglengte: 9:06 Woensdag 27 Nov
01:00 6.1° 1008.8 hPa 1.0 m/s 136.8 mm 6.0° 1008.1 hPa 1.0 m/s 7.6° 1016.2 hPa 0.5 m/s 136.8 mm
04:00 6.1° 1006.9 hPa 0.9 m/s 136.8 mm 6.0° 1006.0 hPa 0.9 m/s 7.0° 1015.9 hPa 0.5 m/s 136.8 mm
07:00 6.0° 1005.0 hPa 0.9 m/s 136.8 mm 6.0° 1004.0 hPa 0.9 m/s 6.4° 1015.8 hPa 0.4 m/s 136.8 mm
10:00 8.3° 1003.6 hPa 1.0 m/s 136.8 mm 8.2° 1002.4 hPa 1.1 m/s 8.8° 1016.3 hPa 0.3 m/s 136.8 mm
13:00 10.5° 1002.0 hPa 1.2 m/s 136.8 mm 10.4° 1000.8 hPa 1.3 m/s 11.4° 1014.7 hPa 0.4 m/s 136.8 mm
16:00 7.9° 1002.3 hPa 1.4 m/s 136.8 mm 7.7° 1001.2 hPa 1.5 m/s 10.3° 1014.4 hPa 0.4 m/s 136.8 mm
19:00 5.2° 1002.8 hPa 1.6 m/s 136.8 mm 4.9° 1001.7 hPa 1.7 m/s 8.2° 1015.1 hPa 0.4 m/s 136.8 mm
22:00 4.6° 1004.4 hPa 1.2 m/s 136.8 mm 4.2° 1003.4 hPa 1.2 m/s 8.1° 1015.5 hPa 0.6 m/s 136.8 mm
 07:45     16:50    Daglengte: 9:05 Donderdag 28 Nov
01:00 4.0° 1005.9 hPa 0.7 m/s 136.8 mm 3.6° 1005.1 hPa 0.8 m/s 8.5° 1015.2 hPa 0.1 m/s 136.8 mm
07:00 4.7° 1007.9 hPa 1.1 m/s 136.8 mm 4.4° 1007.3 hPa 1.2 m/s 8.1° 1014.5 hPa 0.1 m/s 136.8 mm
13:00 13.2° 1010.2 hPa 1.3 m/s 136.8 mm 13.4° 1009.8 hPa 1.3 m/s 10.8° 1014.4 hPa 0.8 m/s 136.8 mm
19:00 7.4° 1011.9 hPa 1.1 m/s 136.8 mm 7.3° 1011.7 hPa 1.2 m/s 8.2° 1014.3 hPa 0.2 m/s 136.8 mm
 07:46     16:49    Daglengte: 9:03 Vrijdag 29 Nov
01:00 6.0° 1013.2 hPa 1.4 m/s 136.8 mm 5.9° 1013.2 hPa 1.5 m/s 7.2° 1013.8 hPa 0.3 m/s 136.8 mm
07:00 4.4° 1013.7 hPa 0.9 m/s 136.8 mm 4.2° 1013.7 hPa 0.9 m/s 6.6° 1013.2 hPa 0.8 m/s 136.8 mm
13:00 11.0° 1013.5 hPa 0.7 m/s 136.8 mm 10.9° 1013.5 hPa 0.7 m/s 12.6° 1013.6 hPa 0.7 m/s 136.8 mm
19:00 6.2° 1014.4 hPa 0.9 m/s 136.8 mm 5.9° 1014.3 hPa 0.9 m/s 9.6° 1015.5 hPa 0.5 m/s 136.8 mm
 07:48     16:49    Daglengte: 9:01 Zaterdag 30 Nov
01:00 4.6° 1015.5 hPa 1.0 m/s 136.8 mm 4.3° 1015.3 hPa 1.0 m/s 8.0° 1017.2 hPa 1.2 m/s 136.8 mm
07:00 4.1° 1015.6 hPa 0.5 m/s 136.8 mm 3.8° 1015.5 hPa 0.5 m/s 6.9° 1016.5 hPa 0.3 m/s 136.8 mm
13:00 10.5° 1015.2 hPa 0.9 m/s 136.8 mm 10.4° 1015.1 hPa 0.9 m/s 11.3° 1015.9 hPa 1.1 m/s 136.8 mm
19:00 5.5° 1018.4 hPa 1.3 m/s 0.4 mm
 07:49     16:49    Daglengte: 9:00 Zondag 01 Dec
01:00 4.7° 1019.0 hPa 1.4 m/s 0.4 mm
07:00 4.2° 1018.3 hPa 1.2 m/s 0.5 mm
13:00 9.3° 1017.3 hPa 1.0 m/s 1.1 mm
19:00 5.0° 1017.8 hPa 1.4 m/s 1.0 mm
 07:50     16:48    Daglengte: 8:58 Maandag 02 Dec
01:00 4.2° 1018.0 hPa 1.7 m/s 0.8 mm
07:00 3.5° 1017.5 hPa 1.9 m/s 1.5 mm
13:00 9.1° 1016.7 hPa 0.7 m/s 1.1 mm
19:00 4.5° 1017.3 hPa 1.7 m/s 0.6 mm
 07:51     16:48    Daglengte: 8:57 Dinsdag 03 Dec
01:00 3.8° 1017.3 hPa 1.8 m/s 0.6 mm
07:00 3.7° 1016.7 hPa 1.8 m/s 0.9 mm
13:00 8.9° 1015.0 hPa 1.0 m/s 0.8 mm
19:00 4.7° 1014.8 hPa 1.3 m/s 1.1 mm
 07:52     16:48    Daglengte: 8:56 Woensdag 04 Dec
01:00 3.7° 1014.1 hPa 1.7 m/s 1.7 mm
07:00 3.3° 1012.4 hPa 1.7 m/s 2.2 mm
13:00 8.3° 1011.4 hPa 1.1 m/s 1.4 mm
19:00 3.8° 1013.0 hPa 1.9 m/s 0.7 mm
 07:53     16:47    Daglengte: 8:54 Donderdag 05 Dec
01:00 2.4° 1014.0 hPa 2.2 m/s 0.2 mm
07:00 1.8° 1014.2 hPa 2.0 m/s 0.0 mm
13:00 7.8° 1013.4 hPa 0.8 m/s 0.0 mm
19:00 3.5° 1013.6 hPa 1.2 m/s 0.5 mm
FMI Hirlam - 7.5 km EWN WRFDA - 12 km DWD ICON - 7 km GFS - 25 km Basiskaart






























































Updatetijd (Europe/Amsterdam) Resolutie Lengte Stap
FMI Hirlam 18:00, 00:00, 06:00, 12:00 7.5 km 49h 1h
EWN WRFDA 20:15, 02:15, 08:15, 14:15 12 km 73h 1h
DWD ICON 22:45, 04:45, 10:45, 16:45 7 km 75h 1h
GFS 19:30, 01:30, 07:30, 13:30 25 km 237h 3h
30+ mm
25-30 mm
20-25 mm
15-20 mm
10-15 mm
6-10 mm
4-6 mm
2-4 mm
1-2 mm
0.5-1 mm
0.2-0.5 mm
0.1-0.2 mm
30+ mm
25-30 mm
20-25 mm
15-20 mm
10-15 mm
6-10 mm
4-6 mm
2-4 mm
1-2 mm
0.5-1 mm
0.2-0.5 mm
0.1-0.2 mm
Sneeuwval
Natte sneeuw
Hagel
Vorst
30+ mm
25-30 mm
20-25 mm
15-20 mm
10-15 mm
6-10 mm
4-6 mm
2-4 mm
1-2 mm
0.5-1 mm
0.2-0.5 mm
0.1-0.2 mm
Sneeuwval
Natte sneeuw
Hagel
Vorst
Onweer
50 mm
40 mm
30 mm
26 mm
22 mm
18 mm
14 mm
10 mm
9 mm
8 mm
7 mm
6 mm
5 mm
4.5 mm
4 mm
3.5 mm
3 mm
2.5 mm
2 mm
1.5 mm
1 mm
0.8 mm
0.6 mm
0.4 mm
0.2 mm
0.05 mm
35°
30°
25°
20°
15°
10°
-5°
-10°
-15°
-20°
-25°
-30°
-35°
120> km/h
105 km/h
90 km/h
75 km/h
60 km/h
50 km/h
40 km/h
30 km/h
20 km/h
10 km/h
0 km/h
2600 J/kg
2400 J/kg
2200 J/kg
2000 J/kg
1800 J/kg
1600 J/kg
1400 J/kg
1200 J/kg
1000 J/kg
800 J/kg
600 J/kg
400 J/kg
200 J/kg
70 dBZ
65 dBZ
60 dBZ
55 dBZ
50 dBZ
45 dBZ
40 dBZ
35 dBZ
30 dBZ
25 dBZ
20 dBZ
15 dBZ
10 dBZ
5 dBZ
-1 K
-2 K
-3 K
-4 K
-5 K
-6 K
-7 K
-8 K
-9 K
950 m²/s²
900 m²/s²
850 m²/s²
800 m²/s²
750 m²/s²
700 m²/s²
650 m²/s²
600 m²/s²
550 m²/s²
500 m²/s²
450 m²/s²
400 m²/s²
350 m²/s²
300 m²/s²
250 m²/s²
200 m²/s²
150 m²/s²
100 m²/s²
46 m/s
44 m/s
42 m/s
40 m/s
38 m/s
36 m/s
34 m/s
32 m/s
30 m/s
28 m/s
26 m/s
24 m/s
22 m/s
20 m/s
16 m/s
12 m/s
8 m/s
4 m/s
30 m/s
28 m/s
26 m/s
24 m/s
22 m/s
20 m/s
18 m/s
16 m/s
14 m/s
12 m/s
10 m/s
8 m/s
6 m/s
4 m/s
2 m/s
3.0
2.8
2.6
2.4
2.2
2.0
1.8
1.6
1.4
1.2
1.0
0.8
0.6
0.4
0.2
15
14
13
12
11
10
9
8
7
6